Weather observations for the past three days for
Port Meadville Airport
Imperial (Metric)
Date Time (edt) Wind (mph) Vis. (mi.) Weather Sky Cond. Temperature (ºF) Relative Humidity Wind Chill (°F) Heat Index (°F) Pressure Precipitation (in)
Air Dwpt 6 hour altimeter (in) sea level (mb) 1 hr 3 hr 6 hr
Max. Min.
20 22:53 Calm 10.00 Fair CLR 63 54 73% 30.11 1019.0
20 21:53 N 3 10.00 Fair CLR 64 53.1 68% 30.12 1019.1
20 20:53 Calm 10.00 Fair CLR 68 51.1 55% 30.11 1018.8
20 19:53 N 5 10.00 Fair CLR 71.1 52 81 71.1 51% 30.1 1018.7
20 18:53 NW 7 10.00 Fair CLR 75 53.1 46% 78 30.1 1018.6
20 17:53 N 8 10.00 Fair CLR 77 55 47% 78 30.1 1018.5
20 16:53 Calm 10.00 Fair CLR 79 53.1 41% 79 30.1 1018.7
20 15:53 NW 8 10.00 Fair CLR 80.1 53.1 39% 80 30.1 1018.6
20 14:53 N 7 10.00 Fair CLR 80.1 54 41% 80 30.12 1019.1
20 13:53 N 8 10.00 Fair CLR 80.1 55.9 80.1 63 44% 80 30.12 1019.2
20 12:53 N 6 10.00 Fair CLR 78.1 53.1 42% 79 30.13 1019.5
20 11:53 NW 8 10.00 Fair CLR 78.1 55 45% 79 30.13 1019.6
20 10:53 Vrbl 5 10.00 Fair CLR 75 59 58% 77 30.13 1019.6
20 09:53 Calm 10.00 Fair CLR 73.9 55.9 54% 30.13 1019.7
20 08:53 E 3 10.00 Fair CLR 69.1 57 66% 30.14 1020.0
20 07:53 Calm 10.00 Fair CLR 63 57.9 63 55 84% 30.14 1020.1
20 06:53 Calm 10.00 Fair CLR 57.9 54 87% 30.13 1019.8
20 05:53 Calm 10.00 Fair CLR 55.9 54 93% 30.13 1019.7
20 04:53 Calm 10.00 Fair CLR 55 53.1 93% 30.13 1019.7
20 03:53 E 5 10.00 Fair CLR 60.1 53.1 78% 30.12 1019.2
20 02:53 E 3 10.00 Fair CLR 57.9 55 90% 30.14 1020.0
20 01:53 E 3 10.00 Fair CLR 60.1 54 70 57.9 80% 30.15 1020.4
20 00:53 Calm 10.00 Fair CLR 59 55.9 90% 30.16 1020.7
19 23:53 NE 5 10.00 Fair CLR 61 57 87% 30.17 1021.1
19 22:53 Calm 10.00 Fair CLR 62.1 57.9 86% 30.17 1021.0
19 21:53 N 3 10.00 Fair CLR 63 57.9 84% 30.17 1021.0
19 20:53 N 5 10.00 Fair CLR 64.9 59 81% 30.15 1020.4
19 19:53 N 7 10.00 Fair CLR 70 59 77 70 68% 30.15 1020.4
19 18:53 N 8 10.00 Fair CLR 73 59 62% 30.14 1020.3
19 17:53 NW 9 10.00 Fair CLR 77 59 54% 79 30.15 1020.4
19 16:53 Calm 10.00 Fair CLR 77 53.1 43% 78 30.16 1020.6
19 15:53 W 9 10.00 Overcast OVC050 75 53.1 46% 78 30.18 1021.3
19 14:53 Vrbl 5 10.00 Partly Cloudy SCT050 73 52 48% 30.18 1021.4
19 13:53 Calm 10.00 Partly Cloudy SCT049 75.9 53.1 75.9 61 45% 78 30.19 1021.9
19 12:53 Calm 10.00 Mostly Cloudy BKN042 73.9 53.1 48% 30.2 1022.1
19 11:53 Vrbl 3 10.00 Partly Cloudy SCT039 70 55 59% 30.21 1022.6
19 10:53 Vrbl 3 10.00 Mostly Cloudy BKN032 BKN040 68 54 61% 30.22 1022.7
19 09:53 Calm 10.00 Fair CLR 69.1 55.9 63% 30.22 1022.8
19 08:53 Vrbl 5 10.00 Fair CLR 64.9 55.9 73% 30.22 1022.7
19 07:53 E 5 10.00 Fair CLR 61 54 61 53.1 78% 30.2 1022.2
19 06:53 Calm 10.00 Fair CLR 55 54 96% 30.18 1021.7
19 05:53 Calm 10.00 Fair CLR 53.1 52 96% 30.17 1021.3
19 04:53 NE 3 10.00 Fair CLR 55 53.1 93% 30.16 1020.7
19 03:53 NE 3 10.00 Fair CLR 55 53.1 93% 30.15 1020.4
19 02:53 Calm 10.00 Fair CLR 57 54 90% 30.15 1020.4
19 01:53 Calm 10.00 Fair CLR 57.9 54 66.9 57.9 87% 30.16 1020.7
19 00:53 W 5 10.00 Fair CLR 57.9 53.1 84% 30.16 1020.7
18 23:53 Calm 10.00 Fair CLR 59 53.1 81% 30.15 1020.3
18 22:53 Calm 10.00 Fair CLR 60.1 54 80% 30.14 1020.2
18 21:53 NW 3 10.00 Fair CLR 61 54 78% 30.14 1020.1
18 20:53 NW 3 10.00 Fair CLR 63 54 73% 30.13 1019.6
18 19:53 Calm 10.00 Fair CLR 66.9 55 75 66.9 66% 30.12 1019.3
18 18:53 N 6 G 20 10.00 A Few Clouds FEW037 FEW055 69.1 55 61% 30.1 1018.8
18 17:53 Calm 10.00 Fair CLR 70 54 57% 30.1 1018.7
18 16:53 N 8 10.00 Partly Cloudy SCT045 73 53.1 50% 30.09 1018.4
18 15:53 NW 8 G 17 10.00 Fair CLR 73 52 48% 30.1 1018.4
18 14:53 Calm 10.00 A Few Clouds FEW041 73.9 55 52% 30.09 1018.2
18 13:53 NW 8 10.00 Mostly Cloudy FEW042 BKN050 72 55 73.9 63 55% 30.09 1018.1
18 12:53 NW 8 G 20 10.00 Mostly Cloudy SCT037 BKN043 72 55.9 57% 30.09 1018.2
18 11:53 N 7 10.00 Partly Cloudy SCT030 72 57.9 61% 30.09 1018.1
18 10:53 Vrbl 6 10.00 Mostly Cloudy FEW025 BKN055 70 57 64% 30.09 1018.1
18 09:53 Vrbl 6 10.00 Fair CLR 68 57.9 70% 30.08 1017.7
18 08:53 Vrbl 6 10.00 Fair CLR 66 59 78% 30.06 1017.1
18 07:53 N 3 10.00 Fair CLR 63 59 64 60.1 87% 30.05 1016.8
18 06:53 N 3 10.00 Fair CLR 60.1 57.9 93% 30.03 1016.0
18 05:53 N 6 10.00 A Few Clouds FEW002 60.1 59 96% 30.01 1015.4
18 04:53 N 5 7.00 Fair CLR 62.1 60.1 93% 29.98 1014.4
18 03:53 Calm 10.00 Fair CLR 63 61 93% 29.98 1014.2
18 02:53 Calm 10.00 Fair CLR 63 61 93% 29.98 1014.2
18 01:53 Calm 10.00 Fair CLR 63 61 73.9 63 93% 29.97 1014.1
18 00:53 W 3 10.00 Fair CLR 64 61 90% 29.97 1013.9
17 23:53 Calm 10.00 A Few Clouds FEW060 64.9 60.1 84% 29.96 1013.8
Date Time (edt) Wind (mph) Vis. (mi.) Weather Sky Cond. Air Dwpt Max. Min. Relative Humidity Wind Chill (°F) Heat Index (°F) altimeter (in) sea level (mb) 1 hr 3 hr 6 hr
6 hour
Temperature (ºF) Pressure Precipitation (in)